Regional Weather Roundup
Issued by NWS

Home | Current Version | Previous Version | Text Only | Print | Product List | Glossary On
Versions: 1 2 3 4 5 6 7 8 9 10 11 12 13 14 15 16 17 18 19 20 21 22 23 24 25 26 27 28 29 30 31 32 33 34 35 36 37 38 39 40 41 42 43 44 45 46 47 48 49 50
000
ASUS42 KKEY 020310
RWRKEY

FLORIDA REGIONAL WEATHER ROUNDUP FOR THE FLORIDA KEYS
NATIONAL WEATHER SERVICE KEY WEST FLORIDA
1100 PM EDT WED APR 01 2015

...SOUTH FLORIDA AND THE KEYS...

CITY           SKY/WX    TMP DP  RH WIND       PRES   REMARKS
FORT MYERS     CLEAR     69  63  81 NW7       30.15R
SW REGIONAL AP CLEAR     69  61  75 N3        30.15R
NAPLES         CLEAR     71  62  73 CALM      30.15R
MIAMI          CLEAR     74  62  66 S3        30.16R
WEST KENDALL   CLEAR     66  62  87 NW6       30.16R
HOMESTEAD      CLEAR     68  64  88 NW1       30.15R
MARATHON       CLEAR     74  61  63 E5        30.14R
BOCA CHICA NAS CLEAR     73  60  63 E8        30.14R
KEY WEST INTL  CLEAR     75  60  59 SE9       30.14R

...INTERNATIONAL WEATHER...

CITY           SKY/WX    TMP DP  RH WIND       PRES   REMARKS
NASSAU BAHAMAS   N/A     68  63  83 CALM      30.16S
CANCUN MEXICO  PTCLDY    77  68  73 E8        30.06R
COZUMEL MEXICO PTCLDY    70  68  94 E3        30.05R

ADJACENT COASTAL WATERS...

STATION/POSITION TIME  SKY/WX   TEMP    WIND        PRES    WAVE
                                AIR SEA DIR/SP/G            HT/PER
                 (UTC)          (F)     (DEG/KT/KT) (MB)    (FT/S)
PULASKI SHOAL LI 0200            73      80/  7/  9 1019.8R
SAND KEY         0250            75     110/ 11/ 13 1020.4R
SOMBRERO KEY     0300            75     100/ 11/ 12 1021.2R
LONG KEY         0200            75 76  130/  7/  7 1020.9R
MOLASSES REEF    0300            75 76  110/  7/  8 1020.9R
FOWEY ROCKS      NOT AVBL

$$



USA.gov is the U.S. government's official web portal to all federal, state and local government web resources and services.